SCP
0 0 0 0 0 0 0 0 0 0 0 0 0 0 0 0 0 0 0 0 0 0 0 0 0 0 0 0 0 0 0 0 0 0 0 0 0 0 0 0 0 0 0 0 0 0 0 0 0 0 0 0 -0 -0
0 0 0 0 0 0 0 0 0 0 0 0 0 0 0 0 0 0 0 0 0 0 0 0 0 0 0 0 0 0 0 0 0 0 0 0 0 0 0 0 0 0 0 0 0 0 0 0 0 0 -0 0 -0 -0
0 0 0 0 0 0 0 0 0 0 0 0 0 0 0 0 0 0 0 0 0 0 0 0 0 0 0 0 0 0 0 0 0 0 0 0 0 0 0 0 0 -0 -0 -0 -0 -0 -0 -0 -0 -0 -0 -0 -0 -0
0 0 0 0 0 0 0 0 0 0 0 0 0 0 0 0 0 0 0 0 0 0 0 0 0 0 0 0 0 0 0 0 0 0 0 0 0 0 0 0 0 0 0 0 0 -0 -0 -0 -0 -0 -0 -0 -0 -0
0 0 0 0 0 0 0 0 0 0 0 0 0 0 0 0 0 0 0 0 0 0 0 0 0 0 0 0 0 0 0 0 0 0 0 0 0 0 0 0 0 0 0 0 0 0 0 0 -0 -0 -0 -0 -0 -0
0 0 0 0 0 0 0 0 0 0 0 0 0 0 0 0 0 0 0 0 0 0 0 0 0 0 0 0 0 0 0 0 0 0 0 0 0 0 0 0 0 0 0 0 0 0 0 -0 -0 0 -0 -0 -0 -0
0 0 0 0 0 0 0 0 0 0 0 0 0 0 0 0 0 0 0 0 0 0 0 0 0 0 0 0 0 0 0 0 0 0 0 0 0 0 0 0 0 0 0 0 0 0 0 0 -0 0 -0 -0 -0 -0
0 0 0 0 0 0 0 0 0 0 0 0 0 0 0 0 0 0 0 0 0 0 0 0 0 0 0 0 0 0 0 0 0 0 0 0 0 0 0 0 0 0 0 0 0 0 0 0 0 0 -0 -0 -0 -0
0 0 0 0 0 0 0 0 0 0 0 0 0 0 0 0 0 0 0 0 0 0 0 0 0 0 0 0 0 0 0 0 0 0 0 0 0 0 0 0 0 0 0 0 0 0 0 0 0 0 -0 -0 -0 -0
0 0 0 0 0 0 0 0 0 0 0 0 0 0 0 0 0 0 0 0 0 0 0 0 0 0 0 0 0 0 0 0 0 0 0 0 0 0 0 0 0 0 0 0 0 0 0 0 0 0 0 -0 -0 -0
0 0 0 0 0 0 0 0 0 0 0 0 0 0 0 0 0 0 0 0 0 0 0 0 0 0 0 0 0 0 0 0 0 0 0 0 0 0 0 0 0 0 0 0 0 0 0 0 0 0 -0 -0 -0 -0
0 0 0 0 0 0 0 0 0 0 0 0 0 0 0 0 0 0 0 0 0 0 0 0 0 0 0 0 0 0 0 0 0 0 0 0 0 0 0 0 0 0 0 0 0 0 0 0 0 0 0 -0 -0 -0
0 0 0 0 0 0 0 0 0 0 0 0 0 0 0 0 0 -0 0 0 0 0 0 0 0 0 0 0 0 0 0 0 0 0 0 0 0 0 0 0 0 0 0 0 0 0 -0 0 0 -0 0 0 -0 -0
0 0 0 0 0 0 0 0 0 0 0 0 0 0 0 0 0 0 0 0 0 0 0 0 0 0 0 0 0 0 0 0 0 0 0 0 0 0 0 0 0 0 0 -0 -0 -0 0 0 -0 -0 -0 -0 -0 -0
0 0 0 0 -0 -0 -0 -0 -0 0 0 0 0 0 0 0 0 0 0 0 0 0 0 0 0 0 0 0 0 0 0 0 0 0 0 0 0 0 0 0 0 0 0 -0 -0 -0 -0 -0 -0 -0 -0 -0 -0 -0
0 0 0 0 0 -0 -0 0 0 0 0 0 0 0 0 0 0 0 0 0 0 0 0 0 0 0 0 0 0 0 0 0 0 0 0 0 0 0 0 0 0 0 -0 -0 -0 -0 0 -0 -0 0 0 0 0 0
0 0 0 0 0 0 0 0 0 0 0 0 0 0 0 0 0 0 0 0 0 0 0 0 0 0 0 0 0 0 0 0 0 0 0 0 0 0 0 0 -0 -0 -0 -0 -0 0 0 -0 0 0 0 0 0 0
0 0 0 0 0 0 0 0 0 0 0 0 0 0 0 0 0 0 0 0 0 0 0 0 0 0 0 0 0 0 0 0 0 0 0 0 0 0 0 -0 -0 -0 -0 0 0 0 -0 -0 -0 0 0 0 0 0
0 0 0 0 0 0 0 0 0 0 0 0 0 0 0 0 0 0 0 0 0 0 0 0 0 0 0 0 0 0 0 0 0 0 0 0 0 -0 -0 -0 -0 0 0 0 -0 -0 -0 -0 -0 0 0 0 0 0
0 0 0 0 0 0 0 0 0 0 0 0 0 0 0 0 0 0 0 0 0 0 0 0 0 0 0 0 0 0 0 0 0 0 0 0 -0 -0 -0 -0 0 -0 -0 0 0 -0 0 0 0 0 0 0 0 0
0 0 0 0 0 0 0 0 0 0 0 0 0 0 0 0 0 0 0 0 0 0 0 0 0 0 0 0 0 0 0 0 0 -0 -0 -0 0 -0 0 -0 0 0 0 0 0 0 -0 -0 -0 0 0 0 0 0
0 0 0 0 0 0 0 0 0 0 0 0 0 0 0 0 0 0 0 0 0 0 0 0 0 0 0 0 0 0 0 -0 -0 -0 -0 -0 0 -0 -0 -0 0 0 0 0 0 -0 -0 -0 -0 -0 0 0 0 -0
0 0 0 0 0 0 0 0 0 0 0 0 0 0 0 0 0 0 0 0 0 0 0 0 0 0 0 0 0 0 -0 0 0 0 0 0 0 0 0 0 0 0 0 0 0 0 -0 -0 -0 -0 -0 -0 0 0
0 0 0 0 0 0 0 0 0 0 0 0 0 0 0 0 0 0 0 0 0 0 0 0 0 0 0 -0 -0 0 0 0 0 0 0 0 0 0 0 0 0 0 0 0 0 0 -0 -0 -0 -0 -0 -0 -0 -0
0 0 0 0 0 0 0 0 0 0 0 0 0 0 0 0 0 0 0 0 0 0 0 0 -0 -0 -0 0 0 0 0 0 0 0 0 0 0 0 0 0 0 0 0 0 0 0 -0 -0 0 0 -0 0 0 0
-0 0 0 0 0 0 0 0 0 0 0 0 0 0 0 0 0 0 0 0 0 0 -0 -0 0 0 0 0 0 0 0 0 0 0 0 0 0 0 0 0 0 0 -0 -0 0 0 0 0 0 0 0 0 0 0
0 -0 0 0 0 0 0 0 0 0 0 0 0 0 0 0 0 0 0 0 0 0 -0 0 0 0 0 0 0 0 0 0 0 0 0 0 0 -0 -0 -0 0 0 0 0 0 0 0 0 0 0 0 0 0 0
-0 0 -0 -0 -0 0 -0 0 0 0 0 0 0 0 0 0 -0 -0 0 0 -0 -0 -0 0 0 0 0 0 0 0 0 0 0 -0 -0 -0 -0 -0 -0 0 0 0 0 0 0 0 0 0 0 0 0 0 0 0
0 0 0 0 0 0 -0 -0 -0 -0 -0 -0 -0 0 -0 -0 -0 0 0 0 0 0 0 0 0 0 0 0 0 0 0 -0 -0 -0 -0 -0 -0 -0 0 0 0 0 0 0 0 0 0 0 0 0 0 0 0 0
0 0 0 0 0 0 -0 -0 0 0 0 -0 0 -0 -0 -0 -0 0 0 0 -0 -0 -0 0 0 -0 0 -0 0 0 -0 0 0 0 0 0 0 0 0 0 0 0 0 0 0 0 0 0 0 0 0 0 0 0
-0 -0 -0 -0 -0 -0 0 -0 -0 -0 -0 -0 0 0 0 0 -0 -0 0 0 0 0 0 0 0 0 0 0 0 0 0 0 0 0 0 0 0 0 0 0 0 0 0 0 0 0 0 0 0 0 0 0 0 0
0 0 0 0 0 0 -0 -0 -0 -0 0 -0 -0 -0 -0 -0 -0 -0 0 0 0 0 0 0 0 0 0 0 0 0 0 0 0 0 0 0 0 0 0 0 0 0 0 0 0 0 0 0 0 0 0 0 0 0
0 0 0 0 0 0 0 0 0 0 -0 -0 -0 -0 -0 -0 -0 -0 -0 0 0 0 0 0 0 0 0 0 0 0 0 0 0 0 0 0 0 0 0 0 0 0 0 0 0 0 0 0 0 0 0 0 0 0
Wind_Speed_500mb
46 46 46 46 47 49 57 54 51 51 48 44 44 45 43 42 42 38 49 42 46 36 57 44 36 31 23 15 6 13 11 9 6 2 3 5 7 10 11 22 26 22 10 23 19 35 41 60 10 26 22 12 34 46
48 49 48 49 50 46 51 53 52 49 49 47 46 43 43 45 45 45 52 50 46 51 47 43 46 54 66 71 45 26 16 14 13 4 1 3 7 6 13 19 14 15 8 10 9 16 44 34 47 76 49 39 36 48
52 54 49 49 50 51 51 56 53 54 53 52 48 46 45 50 48 47 55 49 47 49 60 67 53 70 63 61 63 32 31 36 25 45 8 7 7 6 4 11 14 13 24 15 30 12 52 68 53 42 51 46 57 55
57 57 55 53 50 52 49 52 55 58 60 54 53 51 50 48 43 40 48 52 54 27 11 40 48 53 50 41 46 69 67 57 49 32 13 6 6 17 9 14 16 20 28 16 34 33 47 47 52 47 59 52 52 70
65 60 55 49 50 52 52 50 53 55 51 51 53 50 52 47 42 43 51 62 60 58 8 13 40 57 41 36 54 53 60 69 48 9 9 9 10 13 8 15 21 28 30 24 33 47 27 54 60 49 38 57 65 58
62 61 61 59 52 50 55 59 52 50 52 53 50 52 50 47 43 41 47 62 71 78 31 7 27 46 50 66 72 74 69 62 43 15 10 20 46 18 7 9 22 47 63 60 28 43 45 55 46 45 65 60 50 62
63 60 58 59 58 49 53 54 54 51 50 50 51 51 48 46 44 46 22 27 23 57 26 4 6 11 37 54 59 68 66 47 43 40 20 28 39 40 20 28 41 66 56 41 29 38 36 25 37 75 56 80 89 96
62 55 56 58 59 53 53 54 56 52 49 47 46 44 45 44 46 56 67 66 58 41 20 5 7 3 20 24 16 41 38 29 25 27 20 15 23 14 14 29 57 28 32 24 16 25 34 55 62 80 70 62 86 105
62 54 55 59 58 53 53 54 51 47 44 41 38 36 38 41 42 68 57 46 68 52 10 10 9 8 10 9 8 5 14 5 13 10 12 13 5 10 21 24 2 10 12 28 43 49 45 51 73 86 68 69 62 85
66 59 54 57 55 50 50 48 44 42 39 36 34 22 10 18 30 32 15 18 23 12 14 4 14 8 20 17 9 6 13 6 5 8 5 7 18 51 3 9 6 12 19 31 45 48 68 86 78 95 86 73 66 75
60 53 53 53 49 48 48 45 43 39 35 37 21 23 19 22 15 20 15 11 9 4 10 14 31 11 23 6 9 17 6 4 6 9 11 4 7 1 13 12 16 24 31 39 45 54 53 59 76 85 100 86 75 76
55 52 50 51 47 47 46 45 42 41 43 36 21 20 11 9 6 6 6 3 4 10 8 7 13 17 13 18 6 7 8 4 10 3 8 5 2 13 22 31 38 44 52 59 60 68 70 64 70 78 82 85 86 83
46 46 44 43 46 46 46 46 45 46 43 40 20 14 13 9 7 9 10 4 1 4 4 3 4 8 11 14 2 4 7 10 3 4 9 5 8 25 43 51 58 59 63 67 72 72 71 72 68 69 80 82 82 83
42 40 39 43 48 51 50 48 47 43 43 16 14 11 9 4 7 8 7 8 5 1 4 1 4 5 8 5 5 8 9 4 5 3 13 1 20 43 49 55 62 72 71 72 74 74 73 70 75 74 71 73 77 78
31 33 40 47 48 52 49 48 46 51 19 12 12 10 8 6 12 12 13 13 6 4 2 1 5 5 4 5 6 1 4 9 12 10 1 17 40 46 52 57 61 68 71 74 72 72 73 72 72 72 69 66 62 61
33 35 42 37 34 37 42 39 43 37 10 13 9 7 4 7 3 6 9 9 6 1 4 4 3 5 9 6 5 12 8 12 5 4 25 40 40 49 53 56 60 62 64 67 67 66 64 63 67 68 63 56 49 50
29 40 31 20 25 32 34 41 16 7 10 8 5 16 17 15 11 8 7 6 1 2 5 2 7 19 5 6 6 4 6 3 6 27 35 41 44 48 51 56 57 58 61 61 59 54 53 57 57 54 55 50 43 39
29 33 32 27 16 47 36 11 10 7 12 12 6 9 12 13 15 10 6 3 3 5 2 6 3 4 8 8 4 2 3 17 24 31 41 39 36 41 44 49 51 53 56 51 44 45 48 48 48 48 45 41 39 35
15 17 5 28 44 27 10 8 6 8 12 13 22 18 13 17 13 7 3 4 7 6 2 2 3 5 5 3 4 6 18 21 31 41 38 31 34 39 40 43 47 46 42 38 39 41 39 35 38 39 36 34 34 34
20 15 14 29 23 10 12 11 9 15 6 9 11 11 14 12 14 14 11 9 7 3 6 3 4 5 3 4 12 19 20 19 24 38 38 34 36 36 36 42 41 37 36 36 39 36 37 37 34 32 32 30 32 35
24 25 20 17 25 24 15 10 16 12 13 14 15 5 10 8 8 7 8 7 5 5 1 4 4 4 11 12 10 13 12 14 17 18 29 37 32 30 37 41 35 36 39 43 45 43 39 37 33 31 31 32 31 31
18 19 21 17 14 12 16 15 15 11 10 13 9 7 8 3 4 5 5 9 4 3 3 1 4 5 2 2 3 8 11 9 7 9 9 14 24 31 38 45 44 44 43 44 45 45 42 37 34 34 36 37 38 39
17 11 10 12 10 15 7 10 9 9 7 1 7 6 5 3 4 4 5 2 2 2 2 3 4 7 9 9 10 11 12 12 17 17 16 16 18 21 29 37 44 46 46 47 47 46 45 41 40 39 39 39 42 44
15 11 15 14 19 4 6 13 9 8 8 6 5 3 2 1 2 4 2 4 5 3 4 5 9 11 12 11 12 14 13 14 17 19 19 17 19 23 24 28 33 36 38 39 42 44 45 46 43 43 42 42 43 43
8 21 15 13 17 11 11 9 10 8 4 4 5 2 2 2 2 1 4 5 14 12 11 12 12 11 10 7 4 4 6 7 8 11 15 21 21 16 19 23 27 31 31 31 38 40 41 40 40 41 42 42 42 41
15 16 10 3 8 7 0 5 3 4 2 3 0 4 2 3 2 7 5 15 17 19 18 17 15 13 9 6 4 4 7 10 10 10 12 16 19 25 26 27 27 29 30 31 32 32 31 32 32 33 33 33 31 30
9 5 11 11 6 8 8 8 4 4 3 4 2 3 4 2 7 6 8 16 16 18 18 16 14 11 7 3 4 7 10 14 14 11 12 10 12 16 22 26 28 28 28 28 28 28 28 27 25 24 23 23 23 23
8 6 6 6 8 7 7 3 3 5 4 4 4 2 9 11 7 3 9 17 18 20 19 17 12 7 2 2 7 9 10 10 12 10 7 7 10 13 18 21 24 26 27 27 26 24 24 24 23 22 21 20 20 20
9 5 3 6 5 5 4 6 7 5 5 7 6 5 6 7 7 5 12 19 22 22 21 16 12 8 3 6 9 10 10 6 7 8 9 9 11 13 15 18 21 23 25 25 26 27 27 26 25 24 23 22 20 18
7 7 5 3 5 2 2 4 2 6 8 10 7 9 10 10 8 12 18 24 26 23 18 18 16 14 10 8 7 8 10 9 9 10 12 12 15 16 18 20 22 25 27 29 29 27 27 27 26 26 25 23 22 21
4 2 2 2 4 2 1 7 13 14 10 8 15 13 13 13 9 13 19 20 22 26 27 26 22 19 17 14 15 14 11 12 14 17 20 21 22 23 25 27 29 33 36 37 36 36 35 31 30 28 26 26 25 26
4 3 4 2 3 2 5 5 3 3 5 5 5 7 7 7 8 3 4 16 28 31 24 23 24 17 15 21 22 21 22 24 25 27 30 32 32 31 33 35 37 40 43 43 40 39 38 37 33 31 31 29 29 30
2 2 2 3 2 0 5 11 2 5 5 4 4 4 4 6 9 3 3 2 3 6 10 17 19 20 23 23 23 23 25 26 26 27 27 29 32 35 40 43 45 46 47 45 42 41 39 38 37 35 34 36 37 38
Wind_Direction_500mb
271 274 275 272 271 275 267 268 264 261 262 258 264 269 265 262 258 246 262 255 252 261 268 253 242 228 218 220 199 266 342 292 338 210 232 334 313 11 332 341 307 286 293 283 287 274 267 357 6 345 348 307 1 327
269 272 276 273 275 282 262 266 266 265 263 264 264 263 266 264 258 254 251 258 261 253 260 267 268 258 252 256 250 230 216 177 226 90 348 44 307 316 293 294 289 292 4 321 305 311 314 321 310 307 309 319 322 322
270 270 273 274 277 272 269 270 268 269 269 266 264 264 266 265 260 253 257 258 259 251 270 266 254 264 248 243 250 236 248 240 236 242 199 208 209 148 246 270 285 285 294 294 312 295 301 302 321 325 332 336 333 329
264 266 271 272 273 273 264 266 267 265 265 265 266 263 264 262 258 255 257 259 254 253 230 265 270 257 269 245 234 241 248 246 241 244 214 182 182 223 228 244 256 266 297 285 288 286 299 301 315 326 326 323 325 317
264 261 262 265 272 270 272 265 263 260 261 261 261 262 263 257 257 262 265 265 262 241 268 265 278 274 268 260 242 242 242 241 236 213 219 229 222 230 234 263 263 258 262 270 279 291 306 301 315 321 310 319 321 322
266 264 264 264 263 268 268 272 270 268 263 262 263 264 260 254 256 266 277 274 263 249 248 244 268 265 265 249 242 248 248 236 228 207 221 230 241 250 241 222 251 258 258 270 290 295 293 298 295 306 322 323 315 310
261 264 266 263 263 263 270 271 272 268 266 266 267 263 256 253 253 246 242 276 268 222 220 243 258 277 243 241 240 245 246 233 229 242 234 241 256 255 257 264 266 268 280 278 293 308 303 299 306 314 320 317 317 315
261 259 266 268 263 261 268 266 267 266 266 268 267 259 256 257 260 260 255 256 248 228 225 206 234 242 209 208 213 235 236 228 221 234 241 230 254 226 249 250 269 277 281 298 293 311 293 300 306 311 316 317 316 315
256 254 262 264 260 258 264 263 265 264 264 264 263 261 261 258 259 263 274 261 240 209 198 188 154 237 193 205 193 186 204 221 231 211 225 203 224 220 242 280 78 8 347 313 310 312 315 310 313 312 313 314 308 306
256 247 258 262 257 257 258 261 262 264 260 256 254 241 218 233 259 256 226 224 214 242 200 142 172 205 170 174 215 186 215 205 210 246 212 182 244 252 354 96 73 349 334 328 330 327 323 318 315 313 310 306 300 298
246 245 253 256 255 256 256 255 256 259 254 251 204 199 224 258 253 211 201 187 180 224 218 228 204 215 229 147 209 209 193 196 220 251 155 275 275 142 54 24 350 333 326 319 312 305 302 295 297 301 305 304 301 299
261 252 252 254 253 252 252 250 250 246 241 239 213 185 198 205 220 268 176 98 139 221 226 167 209 194 191 199 138 207 174 125 237 158 102 247 238 47 358 339 330 328 326 323 322 318 316 306 304 300 297 299 301 301
258 251 249 252 252 250 249 246 244 241 240 198 170 157 171 193 213 203 180 221 216 262 266 199 257 205 195 205 197 126 175 221 75 97 216 218 66 348 341 335 328 329 330 326 324 323 320 316 313 304 301 303 302 302
253 249 250 255 254 250 245 242 237 229 221 180 149 169 174 230 226 191 171 177 176 164 97 93 300 202 209 168 210 229 233 101 210 209 233 74 332 333 333 332 330 329 330 327 327 327 323 319 316 316 311 308 308 306
244 248 263 260 252 243 237 233 230 226 191 152 136 176 188 173 84 112 116 120 73 98 123 211 261 232 273 226 203 174 260 232 205 223 145 307 323 327 327 330 328 328 328 328 330 327 326 327 323 316 317 322 319 319
261 263 266 266 245 224 222 228 223 203 173 131 126 109 106 85 350 86 88 105 60 173 192 220 249 241 234 217 195 215 172 218 233 237 310 321 317 323 327 328 327 327 327 327 329 327 327 330 324 322 327 332 336 336
258 257 267 250 236 239 234 202 149 112 113 93 91 94 97 81 116 124 122 121 6 177 176 149 187 219 332 241 225 25 225 204 298 311 321 322 324 326 329 328 330 330 330 330 328 330 333 334 331 333 336 348 351 352
244 257 265 256 246 167 124 116 112 87 72 74 103 91 97 106 113 117 138 98 143 171 171 210 338 208 216 214 225 175 312 302 319 320 320 332 336 336 334 331 335 336 332 331 336 340 340 340 338 344 350 355 8 15
254 272 107 212 187 127 107 72 76 100 77 88 105 103 102 106 96 99 117 138 156 170 203 133 215 220 199 175 171 266 313 320 314 319 329 347 349 344 343 345 343 338 343 348 355 351 346 351 356 358 2 12 22 22
185 186 107 109 152 100 91 65 72 85 86 102 111 99 97 89 106 79 86 124 122 104 52 70 182 177 167 236 299 296 303 315 320 325 337 358 1 357 2 357 350 354 2 12 16 8 9 15 18 19 23 28 36 40
136 111 89 117 65 58 76 57 62 78 110 90 106 73 91 96 74 60 62 70 76 48 140 152 160 264 285 289 286 300 318 323 324 309 321 334 5 10 16 13 17 22 23 23 16 18 25 27 26 34 43 50 55 60
96 90 92 64 73 73 76 55 86 97 79 110 94 78 72 41 38 53 57 62 88 124 138 188 305 343 55 70 35 7 5 6 353 354 359 6 15 25 31 25 28 32 33 31 31 29 32 37 46 55 62 66 70 75
108 104 59 48 81 52 29 57 76 45 87 120 94 52 10 34 71 75 56 70 131 127 58 62 106 101 99 88 65 59 64 65 61 57 54 50 44 40 43 39 34 36 38 42 44 43 44 49 55 60 66 70 74 76
100 57 36 42 39 68 42 34 51 60 70 50 71 76 352 209 111 59 217 245 189 191 169 144 149 140 118 104 93 86 74 59 58 53 47 45 45 39 34 35 37 38 38 39 44 46 48 50 52 55 58 62 63 65
88 10 18 12 26 48 42 21 2 51 71 333 93 122 281 353 118 203 223 218 194 197 183 167 155 151 148 134 108 44 17 2 2 12 19 22 26 31 36 28 24 23 22 29 34 37 41 43 44 46 49 52 54 56
67 8 43 343 357 82 346 77 50 158 55 68 72 299 347 82 109 242 226 184 186 188 184 177 172 159 138 123 98 43 7 350 333 319 328 344 355 6 10 11 16 19 15 16 17 19 23 26 29 34 39 43 46 49
74 353 44 44 70 95 64 45 83 89 89 161 268 15 67 163 245 248 177 186 184 179 172 165 160 152 138 103 14 352 351 356 347 332 325 326 348 2 7 8 10 9 11 12 10 9 10 12 12 12 12 12 17 24
91 58 103 1 66 46 124 82 105 178 217 167 86 171 176 197 239 208 190 183 179 178 174 170 172 179 173 350 350 336 325 322 343 344 349 352 357 2 5 5 6 5 1 359 2 3 4 5 6 6 4 360 356 353
56 61 78 32 42 42 166 161 205 189 178 187 158 241 249 244 251 247 203 187 191 195 195 197 202 210 241 329 328 331 331 319 337 351 349 352 3 5 9 9 6 3 4 3 356 351 349 348 348 350 349 349 348 344
24 16 80 75 105 236 180 188 198 206 230 232 264 280 271 266 263 231 210 203 205 210 213 222 230 237 252 288 303 314 328 326 325 333 338 341 340 340 339 337 336 335 337 341 343 343 339 334 329 325 322 321 319 317
350 342 89 113 202 146 213 286 287 275 257 257 248 253 277 299 289 241 223 212 213 220 228 236 242 249 259 272 288 296 305 314 331 330 325 322 320 319 317 318 319 320 322 324 324 323 322 322 321 317 314 312 311 311
357 30 128 47 281 246 304 330 272 250 236 247 241 251 281 285 277 246 229 225 231 236 241 243 247 257 270 270 278 287 291 295 302 305 307 310 311 312 311 311 312 311 309 309 310 311 312 314 316 318 318 320 319 318
327 339 340 329 341 53 343 340 14 330 247 259 245 269 267 269 252 254 265 285 264 234 231 239 249 252 262 276 284 287 290 294 296 299 303 306 311 312 310 310 310 309 308 307 306 305 304 304 306 310 313 316 318 317
Wind_Speed_850mb
46 46 46 46 47 49 57 54 51 51 48 44 44 45 43 42 42 38 49 42 46 36 57 44 36 31 23 15 6 13 11 9 6 2 3 5 7 10 11 22 26 22 10 23 19 35 41 60 10 26 22 12 34 46
48 49 48 49 50 46 51 53 52 49 49 47 46 43 43 45 45 45 52 50 46 51 47 43 46 54 66 71 45 26 16 14 13 4 1 3 7 6 13 19 14 15 8 10 9 16 44 34 47 76 49 39 36 48
52 54 49 49 50 51 51 56 53 54 53 52 48 46 45 50 48 47 55 49 47 49 60 67 53 70 63 61 63 32 31 36 25 45 8 7 7 6 4 11 14 13 24 15 30 12 52 68 53 42 51 46 57 55
57 57 55 53 50 52 49 52 55 58 60 54 53 51 50 48 43 40 48 52 54 27 11 40 48 53 50 41 46 69 67 57 49 32 13 6 6 17 9 14 16 20 28 16 34 33 47 47 52 47 59 52 52 70
65 60 55 49 50 52 52 50 53 55 51 51 53 50 52 47 42 43 51 62 60 58 8 13 40 57 41 36 54 53 60 69 48 9 9 9 10 13 8 15 21 28 30 24 33 47 27 54 60 49 38 57 65 58
62 61 61 59 52 50 55 59 52 50 52 53 50 52 50 47 43 41 47 62 71 78 31 7 27 46 50 66 72 74 69 62 43 15 10 20 46 18 7 9 22 47 63 60 28 43 45 55 46 45 65 60 50 62
63 60 58 59 58 49 53 54 54 51 50 50 51 51 48 46 44 46 22 27 23 57 26 4 6 11 37 54 59 68 66 47 43 40 20 28 39 40 20 28 41 66 56 41 29 38 36 25 37 75 56 80 89 96
62 55 56 58 59 53 53 54 56 52 49 47 46 44 45 44 46 56 67 66 58 41 20 5 7 3 20 24 16 41 38 29 25 27 20 15 23 14 14 29 57 28 32 24 16 25 34 55 62 80 70 62 86 105
62 54 55 59 58 53 53 54 51 47 44 41 38 36 38 41 42 68 57 46 68 52 10 10 9 8 10 9 8 5 14 5 13 10 12 13 5 10 21 24 2 10 12 28 43 49 45 51 73 86 68 69 62 85
66 59 54 57 55 50 50 48 44 42 39 36 34 22 10 18 30 32 15 18 23 12 14 4 14 8 20 17 9 6 13 6 5 8 5 7 18 51 3 9 6 12 19 31 45 48 68 86 78 95 86 73 66 75
60 53 53 53 49 48 48 45 43 39 35 37 21 23 19 22 15 20 15 11 9 4 10 14 31 11 23 6 9 17 6 4 6 9 11 4 7 1 13 12 16 24 31 39 45 54 53 59 76 85 100 86 75 76
55 52 50 51 47 47 46 45 42 41 43 36 21 20 11 9 6 6 6 3 4 10 8 7 13 17 13 18 6 7 8 4 10 3 8 5 2 13 22 31 38 44 52 59 60 68 70 64 70 78 82 85 86 83
46 46 44 43 46 46 46 46 45 46 43 40 20 14 13 9 7 9 10 4 1 4 4 3 4 8 11 14 2 4 7 10 3 4 9 5 8 25 43 51 58 59 63 67 72 72 71 72 68 69 80 82 82 83
42 40 39 43 48 51 50 48 47 43 43 16 14 11 9 4 7 8 7 8 5 1 4 1 4 5 8 5 5 8 9 4 5 3 13 1 20 43 49 55 62 72 71 72 74 74 73 70 75 74 71 73 77 78
31 33 40 47 48 52 49 48 46 51 19 12 12 10 8 6 12 12 13 13 6 4 2 1 5 5 4 5 6 1 4 9 12 10 1 17 40 46 52 57 61 68 71 74 72 72 73 72 72 72 69 66 62 61
33 35 42 37 34 37 42 39 43 37 10 13 9 7 4 7 3 6 9 9 6 1 4 4 3 5 9 6 5 12 8 12 5 4 25 40 40 49 53 56 60 62 64 67 67 66 64 63 67 68 63 56 49 50
29 40 31 20 25 32 34 41 16 7 10 8 5 16 17 15 11 8 7 6 1 2 5 2 7 19 5 6 6 4 6 3 6 27 35 41 44 48 51 56 57 58 61 61 59 54 53 57 57 54 55 50 43 39
29 33 32 27 16 47 36 11 10 7 12 12 6 9 12 13 15 10 6 3 3 5 2 6 3 4 8 8 4 2 3 17 24 31 41 39 36 41 44 49 51 53 56 51 44 45 48 48 48 48 45 41 39 35
15 17 5 28 44 27 10 8 6 8 12 13 22 18 13 17 13 7 3 4 7 6 2 2 3 5 5 3 4 6 18 21 31 41 38 31 34 39 40 43 47 46 42 38 39 41 39 35 38 39 36 34 34 34
20 15 14 29 23 10 12 11 9 15 6 9 11 11 14 12 14 14 11 9 7 3 6 3 4 5 3 4 12 19 20 19 24 38 38 34 36 36 36 42 41 37 36 36 39 36 37 37 34 32 32 30 32 35
24 25 20 17 25 24 15 10 16 12 13 14 15 5 10 8 8 7 8 7 5 5 1 4 4 4 11 12 10 13 12 14 17 18 29 37 32 30 37 41 35 36 39 43 45 43 39 37 33 31 31 32 31 31
18 19 21 17 14 12 16 15 15 11 10 13 9 7 8 3 4 5 5 9 4 3 3 1 4 5 2 2 3 8 11 9 7 9 9 14 24 31 38 45 44 44 43 44 45 45 42 37 34 34 36 37 38 39
17 11 10 12 10 15 7 10 9 9 7 1 7 6 5 3 4 4 5 2 2 2 2 3 4 7 9 9 10 11 12 12 17 17 16 16 18 21 29 37 44 46 46 47 47 46 45 41 40 39 39 39 42 44
15 11 15 14 19 4 6 13 9 8 8 6 5 3 2 1 2 4 2 4 5 3 4 5 9 11 12 11 12 14 13 14 17 19 19 17 19 23 24 28 33 36 38 39 42 44 45 46 43 43 42 42 43 43
8 21 15 13 17 11 11 9 10 8 4 4 5 2 2 2 2 1 4 5 14 12 11 12 12 11 10 7 4 4 6 7 8 11 15 21 21 16 19 23 27 31 31 31 38 40 41 40 40 41 42 42 42 41
15 16 10 3 8 7 0 5 3 4 2 3 0 4 2 3 2 7 5 15 17 19 18 17 15 13 9 6 4 4 7 10 10 10 12 16 19 25 26 27 27 29 30 31 32 32 31 32 32 33 33 33 31 30
9 5 11 11 6 8 8 8 4 4 3 4 2 3 4 2 7 6 8 16 16 18 18 16 14 11 7 3 4 7 10 14 14 11 12 10 12 16 22 26 28 28 28 28 28 28 28 27 25 24 23 23 23 23
8 6 6 6 8 7 7 3 3 5 4 4 4 2 9 11 7 3 9 17 18 20 19 17 12 7 2 2 7 9 10 10 12 10 7 7 10 13 18 21 24 26 27 27 26 24 24 24 23 22 21 20 20 20
9 5 3 6 5 5 4 6 7 5 5 7 6 5 6 7 7 5 12 19 22 22 21 16 12 8 3 6 9 10 10 6 7 8 9 9 11 13 15 18 21 23 25 25 26 27 27 26 25 24 23 22 20 18
7 7 5 3 5 2 2 4 2 6 8 10 7 9 10 10 8 12 18 24 26 23 18 18 16 14 10 8 7 8 10 9 9 10 12 12 15 16 18 20 22 25 27 29 29 27 27 27 26 26 25 23 22 21
4 2 2 2 4 2 1 7 13 14 10 8 15 13 13 13 9 13 19 20 22 26 27 26 22 19 17 14 15 14 11 12 14 17 20 21 22 23 25 27 29 33 36 37 36 36 35 31 30 28 26 26 25 26
4 3 4 2 3 2 5 5 3 3 5 5 5 7 7 7 8 3 4 16 28 31 24 23 24 17 15 21 22 21 22 24 25 27 30 32 32 31 33 35 37 40 43 43 40 39 38 37 33 31 31 29 29 30
2 2 2 3 2 0 5 11 2 5 5 4 4 4 4 6 9 3 3 2 3 6 10 17 19 20 23 23 23 23 25 26 26 27 27 29 32 35 40 43 45 46 47 45 42 41 39 38 37 35 34 36 37 38
Wind_Direction_850mb
271 274 275 272 271 275 267 268 264 261 262 258 264 269 265 262 258 246 262 255 252 261 268 253 242 228 218 220 199 266 342 292 338 210 232 334 313 11 332 341 307 286 293 283 287 274 267 357 6 345 348 307 1 327
269 272 276 273 275 282 262 266 266 265 263 264 264 263 266 264 258 254 251 258 261 253 260 267 268 258 252 256 250 230 216 177 226 90 348 44 307 316 293 294 289 292 4 321 305 311 314 321 310 307 309 319 322 322
270 270 273 274 277 272 269 270 268 269 269 266 264 264 266 265 260 253 257 258 259 251 270 266 254 264 248 243 250 236 248 240 236 242 199 208 209 148 246 270 285 285 294 294 312 295 301 302 321 325 332 336 333 329
264 266 271 272 273 273 264 266 267 265 265 265 266 263 264 262 258 255 257 259 254 253 230 265 270 257 269 245 234 241 248 246 241 244 214 182 182 223 228 244 256 266 297 285 288 286 299 301 315 326 326 323 325 317
264 261 262 265 272 270 272 265 263 260 261 261 261 262 263 257 257 262 265 265 262 241 268 265 278 274 268 260 242 242 242 241 236 213 219 229 222 230 234 263 263 258 262 270 279 291 306 301 315 321 310 319 321 322
266 264 264 264 263 268 268 272 270 268 263 262 263 264 260 254 256 266 277 274 263 249 248 244 268 265 265 249 242 248 248 236 228 207 221 230 241 250 241 222 251 258 258 270 290 295 293 298 295 306 322 323 315 310
261 264 266 263 263 263 270 271 272 268 266 266 267 263 256 253 253 246 242 276 268 222 220 243 258 277 243 241 240 245 246 233 229 242 234 241 256 255 257 264 266 268 280 278 293 308 303 299 306 314 320 317 317 315
261 259 266 268 263 261 268 266 267 266 266 268 267 259 256 257 260 260 255 256 248 228 225 206 234 242 209 208 213 235 236 228 221 234 241 230 254 226 249 250 269 277 281 298 293 311 293 300 306 311 316 317 316 315
256 254 262 264 260 258 264 263 265 264 264 264 263 261 261 258 259 263 274 261 240 209 198 188 154 237 193 205 193 186 204 221 231 211 225 203 224 220 242 280 78 8 347 313 310 312 315 310 313 312 313 314 308 306
256 247 258 262 257 257 258 261 262 264 260 256 254 241 218 233 259 256 226 224 214 242 200 142 172 205 170 174 215 186 215 205 210 246 212 182 244 252 354 96 73 349 334 328 330 327 323 318 315 313 310 306 300 298
246 245 253 256 255 256 256 255 256 259 254 251 204 199 224 258 253 211 201 187 180 224 218 228 204 215 229 147 209 209 193 196 220 251 155 275 275 142 54 24 350 333 326 319 312 305 302 295 297 301 305 304 301 299
261 252 252 254 253 252 252 250 250 246 241 239 213 185 198 205 220 268 176 98 139 221 226 167 209 194 191 199 138 207 174 125 237 158 102 247 238 47 358 339 330 328 326 323 322 318 316 306 304 300 297 299 301 301
258 251 249 252 252 250 249 246 244 241 240 198 170 157 171 193 213 203 180 221 216 262 266 199 257 205 195 205 197 126 175 221 75 97 216 218 66 348 341 335 328 329 330 326 324 323 320 316 313 304 301 303 302 302
253 249 250 255 254 250 245 242 237 229 221 180 149 169 174 230 226 191 171 177 176 164 97 93 300 202 209 168 210 229 233 101 210 209 233 74 332 333 333 332 330 329 330 327 327 327 323 319 316 316 311 308 308 306
244 248 263 260 252 243 237 233 230 226 191 152 136 176 188 173 84 112 116 120 73 98 123 211 261 232 273 226 203 174 260 232 205 223 145 307 323 327 327 330 328 328 328 328 330 327 326 327 323 316 317 322 319 319
261 263 266 266 245 224 222 228 223 203 173 131 126 109 106 85 350 86 88 105 60 173 192 220 249 241 234 217 195 215 172 218 233 237 310 321 317 323 327 328 327 327 327 327 329 327 327 330 324 322 327 332 336 336
258 257 267 250 236 239 234 202 149 112 113 93 91 94 97 81 116 124 122 121 6 177 176 149 187 219 332 241 225 25 225 204 298 311 321 322 324 326 329 328 330 330 330 330 328 330 333 334 331 333 336 348 351 352
244 257 265 256 246 167 124 116 112 87 72 74 103 91 97 106 113 117 138 98 143 171 171 210 338 208 216 214 225 175 312 302 319 320 320 332 336 336 334 331 335 336 332 331 336 340 340 340 338 344 350 355 8 15
254 272 107 212 187 127 107 72 76 100 77 88 105 103 102 106 96 99 117 138 156 170 203 133 215 220 199 175 171 266 313 320 314 319 329 347 349 344 343 345 343 338 343 348 355 351 346 351 356 358 2 12 22 22
185 186 107 109 152 100 91 65 72 85 86 102 111 99 97 89 106 79 86 124 122 104 52 70 182 177 167 236 299 296 303 315 320 325 337 358 1 357 2 357 350 354 2 12 16 8 9 15 18 19 23 28 36 40
136 111 89 117 65 58 76 57 62 78 110 90 106 73 91 96 74 60 62 70 76 48 140 152 160 264 285 289 286 300 318 323 324 309 321 334 5 10 16 13 17 22 23 23 16 18 25 27 26 34 43 50 55 60
96 90 92 64 73 73 76 55 86 97 79 110 94 78 72 41 38 53 57 62 88 124 138 188 305 343 55 70 35 7 5 6 353 354 359 6 15 25 31 25 28 32 33 31 31 29 32 37 46 55 62 66 70 75
108 104 59 48 81 52 29 57 76 45 87 120 94 52 10 34 71 75 56 70 131 127 58 62 106 101 99 88 65 59 64 65 61 57 54 50 44 40 43 39 34 36 38 42 44 43 44 49 55 60 66 70 74 76
100 57 36 42 39 68 42 34 51 60 70 50 71 76 352 209 111 59 217 245 189 191 169 144 149 140 118 104 93 86 74 59 58 53 47 45 45 39 34 35 37 38 38 39 44 46 48 50 52 55 58 62 63 65
88 10 18 12 26 48 42 21 2 51 71 333 93 122 281 353 118 203 223 218 194 197 183 167 155 151 148 134 108 44 17 2 2 12 19 22 26 31 36 28 24 23 22 29 34 37 41 43 44 46 49 52 54 56
67 8 43 343 357 82 346 77 50 158 55 68 72 299 347 82 109 242 226 184 186 188 184 177 172 159 138 123 98 43 7 350 333 319 328 344 355 6 10 11 16 19 15 16 17 19 23 26 29 34 39 43 46 49
74 353 44 44 70 95 64 45 83 89 89 161 268 15 67 163 245 248 177 186 184 179 172 165 160 152 138 103 14 352 351 356 347 332 325 326 348 2 7 8 10 9 11 12 10 9 10 12 12 12 12 12 17 24
91 58 103 1 66 46 124 82 105 178 217 167 86 171 176 197 239 208 190 183 179 178 174 170 172 179 173 350 350 336 325 322 343 344 349 352 357 2 5 5 6 5 1 359 2 3 4 5 6 6 4 360 356 353
56 61 78 32 42 42 166 161 205 189 178 187 158 241 249 244 251 247 203 187 191 195 195 197 202 210 241 329 328 331 331 319 337 351 349 352 3 5 9 9 6 3 4 3 356 351 349 348 348 350 349 349 348 344
24 16 80 75 105 236 180 188 198 206 230 232 264 280 271 266 263 231 210 203 205 210 213 222 230 237 252 288 303 314 328 326 325 333 338 341 340 340 339 337 336 335 337 341 343 343 339 334 329 325 322 321 319 317
350 342 89 113 202 146 213 286 287 275 257 257 248 253 277 299 289 241 223 212 213 220 228 236 242 249 259 272 288 296 305 314 331 330 325 322 320 319 317 318 319 320 322 324 324 323 322 322 321 317 314 312 311 311
357 30 128 47 281 246 304 330 272 250 236 247 241 251 281 285 277 246 229 225 231 236 241 243 247 257 270 270 278 287 291 295 302 305 307 310 311 312 311 311 312 311 309 309 310 311 312 314 316 318 318 320 319 318
327 339 340 329 341 53 343 340 14 330 247 259 245 269 267 269 252 254 265 285 264 234 231 239 249 252 262 276 284 287 290 294 296 299 303 306 311 312 310 310 310 309 308 307 306 305 304 304 306 310 313 316 318 317